Selinsgrove, PA

2:14 PM EST on December 05, 2019 (GMT -0500)
Penn Valley

Weather History for KSEG - June, 2019

Change the Weather History Date:

Tuesday, June 4, 2019

  Actual Average (KIPT) Record (KIPT)
Temperature  
Mean Temperature 57 °F -  
Max Temperature 73 °F 73 °F 100 °F (1925)
Min Temperature 42 °F 51 °F 39 °F (1965)
Degree Days  
Heating Degree Days 8    
Growing Degree Days 7 (Base 50)    
Moisture  
Dew Point 44 °F    
Average Humidity 60    
Maximum Humidity 93    
Minimum Humidity 35    
Precipitation  
Precipitation 0.00 in - - ()
Sea Level Pressure  
Sea Level Pressure 30.09 in    
Wind  
Wind Speed 3 mph (South)    
Max Wind Speed 13 mph    
Max Gust Speed 21 mph    
Visibility 10 miles    
Events      
Averages and records for this station are not official NWS values.
T = Trace of Precipitation, MM = Missing Value Source: NWS Daily Summary

Daily Weather History Graph

Daily Weather History Graph

Search for Another Location

Airport or City:

Astronomy

Jun. 04, 2019 Rise Set
Actual Time 5:37 AM EDT 8:34 PM EDT
Civil Twilight 5:04 AM EDT 9:07 PM EDT
Nautical Twilight 4:22 AM EDT 9:49 PM EDT
Astronomical Twilight 3:34 AM EDT 10:38 PM EDT
Moon 6:44 AM EDT (6/4) 10:00 PM EDT (6/4)
Length of Visible Light 16h 03m
Length of Day
14h 57m
New Moon, 2% of the Moon is Illuminated
Jun 4
New Moon
Jun 10
First Quarter
Jun 17
Full
Jun 25
Last Quarter
Jul 2
New

Hourly Weather History & Observations

Time (EDT) Temp. Dew Point Humidity Pressure Visibility Wind Dir Wind Speed Gust Speed Precip Events Conditions
12:53 AM 48.0 °F 43.0 °F 83% 30.13 in 10.0 mi Calm Calm - N/A   Clear
1:53 AM 46.9 °F 43.0 °F 86% 30.13 in 10.0 mi Calm Calm - N/A   Clear
2:53 AM 45.0 °F 42.1 °F 90% 30.14 in 10.0 mi Calm Calm - N/A   Clear
3:53 AM 44.1 °F 41.0 °F 89% 30.14 in 10.0 mi Calm Calm - N/A   Clear
4:53 AM 43.0 °F 41.0 °F 93% 30.14 in 10.0 mi Calm Calm - N/A   Clear
5:53 AM 42.1 °F 39.9 °F 92% 30.15 in 10.0 mi Calm Calm - N/A   Clear
6:53 AM 46.0 °F 42.1 °F 86% 30.18 in 10.0 mi Calm Calm - N/A   Clear
7:53 AM 50.0 °F 44.1 °F 80% 30.19 in 10.0 mi Calm Calm - N/A   Clear
8:53 AM 57.0 °F 44.1 °F 62% 30.20 in 10.0 mi Variable 3.5 mph - N/A   Clear
9:53 AM 59.0 °F 42.1 °F 53% 30.19 in 10.0 mi SSE 3.5 mph - N/A   Clear
10:53 AM 62.1 °F 44.1 °F 52% 30.17 in 10.0 mi South 4.6 mph - N/A   Partly Cloudy
11:53 AM 64.9 °F 42.1 °F 43% 30.15 in 10.0 mi Variable 5.8 mph - N/A   Clear
12:53 PM 66.0 °F 39.9 °F 38% 30.13 in 10.0 mi Variable 4.6 mph - N/A   Clear
1:53 PM 68.0 °F 44.1 °F 42% 30.09 in 10.0 mi SSE 6.9 mph - N/A   Clear
2:53 PM 70.0 °F 42.1 °F 36% 30.07 in 10.0 mi Variable 6.9 mph - N/A   Clear
3:53 PM 71.1 °F 43.0 °F 36% 30.04 in 10.0 mi SSW 6.9 mph - N/A   Clear
4:53 PM 72.0 °F 43.0 °F 35% 30.02 in 10.0 mi SSW 10.4 mph 20.7 mph N/A   Clear
5:53 PM 72.0 °F 45.0 °F 38% 30.00 in 10.0 mi South 12.7 mph 20.7 mph N/A   Clear
6:53 PM 71.1 °F 46.0 °F 41% 29.99 in 10.0 mi South 9.2 mph - N/A   Clear
7:53 PM 69.1 °F 48.0 °F 47% 29.99 in 10.0 mi South 8.1 mph - N/A   Partly Cloudy
8:53 PM 68.0 °F 48.0 °F 49% 29.97 in 10.0 mi South 3.5 mph - N/A   Mostly Cloudy
9:53 PM 66.9 °F 48.9 °F 52% 29.97 in 10.0 mi Calm Calm - N/A   Overcast
10:53 PM 66.9 °F 50.0 °F 54% 29.97 in 10.0 mi Variable 3.5 mph - N/A   Mostly Cloudy
11:53 PM 66.0 °F 50.0 °F 56% 29.96 in 10.0 mi South 6.9 mph - N/A   Mostly Cloudy